Regional Weather Roundup
Issued by NWS Newport/Morehead, NC

Current Version | Previous Version | Graphics & Text | Print | Product List | Glossary Off
Versions: 1 2 3 4 5 6 7 8 9 10 11 12 13 14 15 16 17 18 19 20 21 22 23 24 25 26 27 28 29 30 31 32 33 34 35 36 37 38 39 40 41 42 43 44 45 46 47 48 49 50

000
ASUS42 KMHX 251024
RWRMHX
WEATHER ROUNDUP FOR EASTERN NORTH CAROLINA
NATIONAL WEATHER SERVICE NEWPORT/MOREHEAD CITY NC
600 AM EDT SAT APR 25 2015

NOTE: "FAIR" INDICATES FEW OR NO CLOUDS BELOW 12,000 FEET
WITH NO SIGNIFICANT WEATHER AND/OR OBSTRUCTIONS TO VISIBILITY

NCZ015>017-031-032-045>047-102-103-251100-
NORTH COAST

CITY           SKY/WX    TMP DP  RH WIND       PRES   REMARKS
EDENTON        PTCLDY    45  40  82 CALM      29.92S
ELIZABETH CITY PTCLDY    50  41  71 E6        29.94R
KITTY HAWK     SUNNY     51  43  75 E3        29.92S
MANTEO         CLEAR     49  44  81 E3        29.94R

$$

NCZ045>047-081-094-103-104-251100-
CENTRAL COAST

CITY           SKY/WX    TMP DP  RH WIND       PRES   REMARKS
FRISCO         CLEAR     55  47  74 W9        29.92F
SWANQUARTER      N/A     57 N/A N/A W10       29.88S

$$

NCZ095-097-098-100-101-251100-
SOUTHERN COAST

CITY           SKY/WX    TMP DP  RH WIND       PRES   REMARKS
BEAUFORT       CLEAR     58  54  86 SW5       29.94S
CEDAR ISLAND     N/A     57 N/A N/A SW6G13    29.97S
JACKSONVILLE   PTCLDY    51  45  79 SW3       29.93F
PINEY ISLAND   SUNNY    N/A N/A N/A SW7       29.93S
WILMINGTON     PTCLDY    49  47  93 CALM      29.93F


$$

NCZ011>013-027>030-043-044-078>080-089-090>093-098-251100-
COASTAL PLAIN

CITY           SKY/WX    TMP DP  RH WIND       PRES   REMARKS
AHOSKIE        PTCLDY    42  38  86 CALM      29.93S
CLINTON        MOCLDY    52  47  82 CALM      29.93S
ELIZABETHTOWN  CLOUDY    56  46  71 SW5       29.92S
GOLDSBORO      CLOUDY    52  47  83 S1        29.89F
GREENVILLE     PTCLDY    46  43  87 CALM      29.94S
HAVELOCK       FAIR      47  42  83 CALM      29.95R
KENANSVILLE    PTCLDY    46  45  93 CALM      29.93S
KINSTON        PTCLDY    50  45  84 S5        29.91F
NEW BERN       PTCLDY    50  43  77 SW7       29.95S
RICHLANDS      PTCLDY    46  41  81 SW5       29.94S
ROCKY MOUNT    PTCLDY    46  43  89 CALM      29.91F
WASHINGTON       N/A     47  43  87 CALM      29.93R
WHITEVILLE     MOCLDY    55  47  75 SW3       29.93R

$$

AMZ130-135-150-152-154-156-158-170-250-252-270-ANZ085-086-088-633-658-670-251100-
MARINE OBSERVATIONS

STATION/POSITION TIME  TEMP    WIND        PRES    WAVE   SWELL
                       AIR SEA DIR/SP/G            HT/PER HT/PER
                 (UTC) (F)     (DEG/KT/KT) (MB)    (FT/S) (FT/S)
CHESAPEAKE LIGHT 1000   54     290/  2/  3 1014.3
64 E VA BEACH    0950   57 61  260/  4/  4 1013.1    2/12   2/12
DUCK             1000   53 55   70/  7/  8 1012.4
2 E DUCK         0911      54                N/A     2/13   2/13
10 NE DUCK       NOT AVBL
OREGON INLET     1000   51 55   50/  4/  5 1013.4
HATTERAS CG      1000   59 66  230/  7/ 10 1012.8
DIAMOND BUOY     0950   64 70  260/ 17/ 19 1013.1    4/ 9   3/ 9
CAPE LOOKOUT     1000   61     260/  8/  9 1013.6
BEAUFORT LAB     1000   59 64  260/  3/  7 1012.9
27 SE WRIGHTSVLE 1000   64 70  240/ 10/ 12   N/A
5 SE WRIGHTSVLE  0908   64 65  240/ 12/ 14 1013.9
225 S CAPE HAT   0950   63 70  170/  2/  4 1016.2    7/10   7/10
41 SE CHARLESTON 0950   70 71  170/ 10/ 14 1013.8    3/ 9   2/ 9

$$



USA.gov is the U.S. government's official web portal to all federal, state and local government web resources and services.